COSMOS 374 DEB

Satellite information

Favourite Embed

Satellite Type and Status

DEBRISIN ORBIT

Key statistics

Satellite COSMOS 374 DEB at a glance.

Uptime

19982

Days in orbit

Revolutions

≈ 12.9

Per day

Orbit

MEO

Medium Earth Orbit

Inclination

62.8

Latest

Satellite identification and parameters

Extended collection of information and parameters for COSMOS 374 DEB.

Object identification

Identified? True

Debris? True

Object name: COSMOS 374 DEB

International designator: 1970-089AP

Object number (NORAD): 5076

Object ID (CCSDS): 5076

Country: COMMONWEALTH OF INDEPENDENT STATES (CIS)

Current information (Y/N): Y

RCS size: SMALL

Orbital parameters

Period: 111.882 minutes

Inclination: 62.7934 deg

SMA: 7691.314 km

Apoapsis: 2081.217 km

Periapsis: 545.14 km

RAAN: 245.7737 deg

Eccentricy: 0.0998579

Argument of periapsis: 168.1312 deg

Mean anomaly: 194.5237 deg

Mean motion: 12.87069379 rev/day

Mean motion (dot): 0.00000297 rev/day2

B* drag term: 0.00015712 1/REarth

Two-line elements (TLE)

Creation date: July 6, 2025, 10:36 p.m.

Reference frame: TEME

Reference center: EARTH

Epoch: July 6, 2025, 5:53 p.m. UTC

TLE line 0: 0 COSMOS 374 DEB

TLE line 1: 1 5076U 70089AP 25187.74529218 .00000297 00000-0 15712-3 0 9990

TLE line 2: 2 5076 62.7934 245.7737 0998579 168.1312 194.5237 12.87069379551256

Live tracking on map

Real-time ground track for satellite COSMOS 374 DEB.

In-orbit conjunctions

A list of the most updated potential collisions computed for object COSMOS 374 DEB.

Target Orbit TCA Probability of collision Miss distance Type
CZ-4 DEB SSO 2024-11-11 10:40:37 0.0003782344 275.0 (m) DEBRIS
COSMOS 1758 LEO 2024-06-21 22:30:53 0.0001486012 503.0 (m) PAYLOAD

Associated space launch

The I2P satellites were the first soviet coorbital ASAT system.

COSMOS 374 DEB was lifted into orbit during the mission ‘Tsiklon-2 | I2P 4’, on board a Tsiklon-2 space rocket.

The launch took place on Oct. 23, 1970, 4:42 a.m. from 90/20.

For more information about the launch, click the button.

Launch to space Tsiklon-2 | I2P 4
Tsiklon-2 | I2P 4

Agency: N/A

Status: Launch Successful

Launch date: Oct. 23, 1970, 4:42 a.m. UTC

Rocket: Tsiklon-2

Launch pad: 90/20

Location: Baikonur Cosmodrome, Republic of Kazakhstan

...

Latest news about this satellite

There are no fresh news available about this satellite. Check back as we update our databases every day.


Newsletter sign-up

Weekly statistics, charts and insights to help you stay on top of the space industry.